EW5196 Weather Reports


time (UTC)temp
C
wind
direction
speed
KPH
gust
KPH
rain 1hr
cm
rain 24hr
cm
rain mn
cm
humidity
%
barometer
mb
20260904152043 32 122 4.8 6.4 0.00 0.00 0.00 60 1016.1
20260904151538 32 236 0.0 1.6 0.00 0.00 0.00 63 1016.2
20260904151037 32 250 0.0 4.8 0.00 0.00 0.00 61 1016.0
20260904150532 32 260 0.0 3.2 0.00 0.00 0.00 63 1016.2
20260904150027 32 160 0.0 3.2 0.00 0.00 0.00 63 1016.1
20260904145527 32 12 0.0 3.2 0.00 0.00 0.00 64 1016.3
20260904145022 32 187 1.6 6.4 0.00 0.00 0.00 65 1016.2
20260904144518 31 231 1.6 6.4 0.00 0.00 0.00 64 1016.1
20260904144014 31 210 1.6 4.8 0.00 0.00 0.00 64 1015.9
20260904143509 31 184 0.0 11.3 0.00 0.00 0.00 64 1016.1
20260904143006 31 264 6.4 8.0 0.00 0.00 0.00 64 1016.1
20260904142502 31 169 1.6 4.8 0.00 0.00 0.00 63 1016.2
20260904142002 31 151 3.2 4.8 0.00 0.00 0.00 66 1016.1
20260904141456 31 228 1.6 4.8 0.00 0.00 0.00 67 1015.9
20260904140953 31 119 0.0 1.6 0.00 0.00 0.00 68 1016.1
20260904140452 31 109 0.0 4.8 0.00 0.00 0.00 69 1016.1
20260904135951 30 166 3.2 3.2 0.00 0.00 0.00 70 1016.3
20260904135446 30 163 0.0 3.2 0.00 0.00 0.00 72 1016.4
20260904134943 29 230 3.2 4.8 0.00 0.00 0.00 74 1016.1
20260904134442 28 247 1.6 4.8 0.00 0.00 0.00 74 1016.2
20260904133937 28 232 3.2 4.8 0.00 0.00 0.00 76 1016.1
20260904133432 28 243 4.8 4.8 0.00 0.00 0.00 78 1016.0
20260904132928 28 262 3.2 3.2 0.00 0.00 0.00 78 1015.7
20260904132423 28 146 3.2 3.2 0.00 0.00 0.00 79 1015.6
20260904131922 27 206 0.0 1.6 0.00 0.00 0.00 80 1015.9
20260904131417 27 163 1.6 3.2 0.00 0.00 0.00 80 1016.1
20260904130913 27 167 1.6 6.4 0.00 0.00 0.00 82 1015.9
20260904130412 27 165 0.0 3.2 0.00 0.00 0.00 83 1015.9
20260904125907 26 147 3.2 4.8 0.00 0.00 0.00 84 1016.0
20260904125404 26 197 0.0 1.6 0.00 0.00 0.00 85 1015.7
20260904124903 26 140 0.0 3.2 0.00 0.00 0.00 85 1015.8
20260904124359 26 187 0.0 3.2 0.00 0.00 0.00 87 1015.8
20260904123854 26 155 1.6 3.2 0.00 0.00 0.00 88 1016.2
20260904123349 25 60 0.0 4.8 0.00 0.00 0.00 90 1015.9
20260904122845 25 154 0.0 1.6 0.00 0.00 0.00 91 1015.6
20260904122344 25 286 0.0 3.2 0.00 0.00 0.00 91 1015.8
20260904121839 25 68 0.0 3.2 0.00 0.00 0.00 91 1016.2
20260904121336 25 159 0.0 1.6 0.00 0.00 0.00 92 1016.3
20260904120832 24 189 0.0 4.8 0.00 0.00 0.00 95 1016.2
20260904120327 23 244 0.0 1.6 0.00 0.00 0.00 96 1016.2
20260904115822 23 154 0.0 0.0 0.00 0.00 0.00 97 1016.0
20260904115317 23 175 0.0 1.6 0.00 0.00 0.00 97 1016.0
20260904114818 23 110 0.0 3.2 0.00 0.00 0.00 97 1015.8
20260904114312 23 175 1.6 1.6 0.00 0.00 0.00 97 1015.9
20260904113807 23 67 0.0 0.0 0.00 0.00 0.00 98 1016.0
20260904113306 23 272 0.0 0.0 0.00 0.00 0.00 98 1015.6
20260904112801 23 154 0.0 0.0 0.00 0.00 0.00 98 1015.9
20260904112257 23 119 0.0 3.2 0.00 0.00 0.00 98 1016.1
20260904111752 23 242 0.0 0.0 0.00 0.00 0.00 98 1015.9
20260904111248 22 147 0.0 1.6 0.00 0.00 0.00 98 1016.0
20260904110744 22 24 0.0 1.6 0.00 0.00 0.00 98 1015.9
20260904110243 22 72 1.6 3.2 0.00 0.00 0.00 97 1015.9
20260904105738 22 147 0.0 1.6 0.00 0.00 0.00 97 1016.0
20260904105232 22 79 1.6 3.2 0.00 0.00 0.00 97 1015.9
20260904104728 22 128 3.2 3.2 0.00 0.00 0.00 97 1015.8
20260904104223 22 184 1.6 3.2 0.00 0.00 0.00 97 1015.7
20260904103720 22 151 1.6 3.2 0.00 0.00 0.00 97 1015.8
20260904103215 23 153 1.6 3.2 0.00 0.00 0.00 97 1015.7
20260904102711 23 161 1.6 3.2 0.00 0.00 0.00 97 1016.0
20260904102206 23 173 1.6 3.2 0.00 0.00 0.00 97 1015.7
20260904101702 23 153 0.0 3.2 0.00 0.00 0.00 97 1015.7
20260904101158 23 149 0.0 1.6 0.00 0.00 0.00 97 1015.7
20260904100654 23 172 0.0 0.0 0.00 0.00 0.00 96 1015.8
20260904100149 23 179 1.6 3.2 0.00 0.00 0.00 96 1015.7
20260904095649 23 155 1.6 1.6 0.00 0.00 0.00 96 1015.8
20260904095149 23 143 0.0 0.0 0.00 0.00 0.00 96 1015.9
20260904094644 23 143 0.0 0.0 0.00 0.00 0.00 96 1015.7
20260904094139 23 143 0.0 1.6 0.00 0.00 0.00 96 1015.8
20260904093636 23 153 1.6 3.2 0.00 0.00 0.00 96 1015.8
20260904093135 23 158 1.6 3.2 0.00 0.00 0.00 96 1015.9
20260904092632 23 148 0.0 3.2 0.00 0.00 0.00 95 1016.0
20260904092127 23 142 1.6 1.6 0.00 0.00 0.00 95 1016.0
20260904091623 23 154 0.0 1.6 0.00 0.00 0.00 95 1016.0
20260904091123 23 130 3.2 3.2 0.00 0.00 0.00 95 1016.1
20260904090618 23 146 0.0 1.6 0.00 0.00 0.00 94 1016.0
20260904090114 23 149 1.6 3.2 0.00 0.00 0.00 94 1016.0
20260904085609 23 176 0.0 3.2 0.00 0.00 0.00 94 1016.0
20260904085108 24 209 0.0 3.2 0.00 0.00 0.00 94 1016.2
20260904084604 24 227 1.6 1.6 0.00 0.00 0.00 94 1016.1
20260904084100 24 242 1.6 1.6 0.00 0.00 0.00 93 1016.1
20260904083556 24 159 0.0 1.6 0.00 0.00 0.00 93 1015.9
20260904083052 24 159 3.2 3.2 0.00 0.00 0.00 93 1015.8
20260904082547 24 148 0.0 1.6 0.00 0.00 0.00 93 1015.8
20260904082042 24 159 0.0 0.0 0.00 0.00 0.00 93 1015.9
20260904081537 24 153 0.0 3.2 0.00 0.00 0.00 92 1015.7
20260904081032 25 85 0.0 0.0 0.00 0.00 0.00 92 1015.4
20260904080528 25 121 3.2 3.2 0.00 0.00 0.00 91 1015.4
20260904080024 25 247 1.6 1.6 0.00 0.00 0.00 91 1015.6
20260904075520 25 92 0.0 0.0 0.00 0.00 0.00 91 1015.9
20260904075015 25 143 1.6 3.2 0.00 0.00 0.00 89 1015.7
20260904074514 25 217 0.0 1.6 0.00 0.00 0.00 89 1015.6
20260904074009 25 186 0.0 1.6 0.00 0.00 0.00 89 1015.7
20260904073504 25 193 3.2 4.8 0.00 0.00 0.00 90 1015.5
20260904073001 25 5 3.2 3.2 0.00 0.00 0.00 91 1015.3
20260904072456 25 131 1.6 3.2 0.00 0.00 0.00 90 1015.4
20260904071956 25 163 0.0 1.6 0.00 0.00 0.00 90 1015.4
20260904071451 25 132 0.0 1.6 0.00 0.00 0.00 88 1015.3
20260904070946 25 143 0.0 3.2 0.00 0.00 0.00 85 1015.4
20260904070444 26 159 0.0 0.0 0.00 0.00 0.00 86 1015.4
20260904065939 26 180 1.6 3.2 0.00 0.00 0.00 84 1015.3
20260904065435 26 158 3.2 3.2 0.00 0.00 0.00 83 1015.2
20260904064930 26 184 0.0 0.0 0.00 0.00 0.00 83 1015.5
20260904064427 26 200 3.2 3.2 0.00 0.00 0.00 82 1015.5
20260904063921 27 119 0.0 1.6 0.00 0.00 0.00 83 1015.5
20260904063418 27 145 0.0 3.2 0.00 0.00 0.00 78 1015.5
20260904062913 26 259 3.2 6.4 0.00 0.00 0.00 84 1015.7
20260904062409 26 147 0.0 1.6 0.00 0.00 0.00 84 1015.5
20260904061905 27 172 0.0 1.6 0.00 0.00 0.00 84 1015.8
20260904061401 27 247 1.6 8.0 0.00 0.00 0.00 81 1016.0
20260904060857 27 165 0.0 4.8 0.00 0.00 0.00 83 1016.2
20260904060352 27 252 1.6 8.0 0.00 0.00 0.00 84 1016.4
20260904055848 27 225 3.2 6.4 0.00 0.00 0.00 85 1016.2
20260904055342 27 239 0.0 4.8 0.00 0.00 0.00 85 1016.3
20260904054838 26 158 6.4 9.7 0.00 0.00 0.00 87 1016.8
20260904054334 26 225 0.0 1.6 0.00 0.00 0.00 87 1015.4
20260904053829 26 132 0.0 0.0 0.00 0.00 0.00 88 1015.9
20260904053329 26 184 0.0 3.2 0.00 0.00 0.00 89 1015.5
20260904052825 26 80 0.0 0.0 0.00 0.00 0.00 91 1015.8
20260904052321 26 147 0.0 0.0 0.00 0.00 0.00 90 1015.6
20260904051817 26 154 0.0 0.0 0.00 0.00 0.00 90 1015.7
20260904051313 26 172 0.0 1.6 0.00 0.00 0.00 89 1015.8
20260904050807 26 143 0.0 1.6 0.00 0.00 0.00 88 1015.6
20260904050305 26 140 0.0 1.6 0.00 0.00 0.00 89 1015.9
20260904045804 26 134 0.0 1.6 0.00 0.00 0.00 91 1015.9
20260904045259 26 155 0.0 1.6 0.00 0.00 0.00 91 1016.1
20260904044754 26 173 1.6 3.2 0.00 0.00 0.00 92 1016.0
20260904044251 26 177 1.6 3.2 0.00 0.00 0.00 93 1015.9
20260904043746 26 172 0.0 1.6 0.00 0.00 0.00 93 1015.9
20260904043243 26 194 0.0 1.6 0.00 0.00 0.00 93 1015.9
20260904042737 26 184 0.0 1.6 0.00 0.00 0.00 93 1015.6
20260904042234 26 153 1.6 3.2 0.00 0.00 0.00 94 1015.8
20260904041733 26 161 0.0 1.6 0.00 0.00 0.00 94 1015.7
20260904041230 26 172 0.0 1.6 0.00 0.00 0.00 94 1016.0
20260904040725 26 165 1.6 1.6 0.00 0.00 0.00 93 1016.0
20260904040221 26 165 1.6 1.6 0.00 0.00 0.00 93 1015.9
20260904035717 26 163 1.6 3.2 0.00 0.00 0.00 93 1015.9
20260904035212 26 270 0.0 3.2 0.00 0.00 0.00 94 1016.0
20260904034710 26 192 0.0 1.6 0.00 0.00 0.00 94 1016.1
20260904034207 26 147 0.0 0.0 0.00 0.00 0.00 94 1016.0
20260904033703 26 165 0.0 1.6 0.00 0.00 0.00 94 1016.2
20260904033159 26 160 0.0 1.6 0.00 0.00 0.00 93 1016.3
20260904032655 26 154 0.0 0.0 0.00 0.00 0.00 93 1016.5
20260904032154 26 158 1.6 1.6 0.00 0.00 0.00 93 1016.5
20260904031648 26 156 0.0 0.0 0.00 0.00 0.00 93 1016.5
20260904031143 26 156 0.0 1.6 0.00 0.00 0.00 93 1016.4
20260904030639 26 133 1.6 1.6 0.00 0.00 0.00 93 1016.2
20260904030134 26 177 0.0 1.6 0.00 0.00 0.00 92 1016.3
20260904025630 26 165 0.0 0.0 0.00 0.00 0.00 92 1016.2
20260904025125 26 168 0.0 1.6 0.00 0.00 0.00 92 1016.4
20260904024620 26 232 0.0 1.6 0.00 0.00 0.00 92 1016.1
20260904024116 26 225 0.0 1.6 0.00 0.00 0.00 93 1016.3
20260904023612 26 236 1.6 1.6 0.00 0.00 0.00 93 1016.1
20260904023107 26 164 0.0 1.6 0.00 0.00 0.00 92 1016.0
20260904022602 26 172 0.0 1.6 0.00 0.00 0.00 92 1016.0
20260904022059 26 147 0.0 0.0 0.00 0.00 0.00 92 1016.1
20260904021554 26 203 0.0 1.6 0.00 0.00 0.00 92 1016.0
20260904021049 26 126 1.6 1.6 0.00 0.00 0.00 93 1016.0
20260904020544 26 160 0.0 3.2 0.00 0.00 0.00 93 1016.0
20260904020039 26 133 0.0 1.6 0.00 0.00 0.00 92 1016.0
20260904015533 26 147 0.0 1.6 0.00 0.00 0.00 92 1016.1
20260904015032 26 172 0.0 0.0 0.00 0.00 0.00 92 1016.1
20260904014526 26 134 0.0 0.0 0.00 0.00 0.00 91 1016.5
20260904014022 26 154 0.0 0.0 0.00 0.00 0.00 91 1016.2
20260904013518 26 154 0.0 0.0 0.00 0.00 0.00 91 1016.4
20260904013015 26 160 0.0 1.6 0.00 0.00 0.00 91 1016.4
20260904012514 26 154 0.0 0.0 0.00 0.00 0.00 91 1016.4
20260904012009 27 141 1.6 1.6 0.00 0.00 0.00 90 1016.5
20260904011503 27 159 0.0 0.0 0.00 0.00 0.00 90 1016.4
20260904010958 27 187 0.0 0.0 0.00 0.00 0.00 90 1016.5
20260904010455 27 154 0.0 0.0 0.00 0.00 0.00 89 1016.7
20260904005955 27 159 0.0 1.6 0.00 0.00 0.00 88 1016.8
20260904005450 27 135 1.6 1.6 0.00 0.00 0.00 88 1016.8
20260904004945 27 187 0.0 1.6 0.00 0.00 0.00 88 1016.7
20260904004442 27 211 0.0 3.2 0.00 0.00 0.00 88 1016.7
20260904003941 27 186 0.0 1.6 0.00 0.00 0.00 88 1016.8
20260904003437 27 160 0.0 1.6 0.00 0.00 0.00 88 1016.7
20260904002932 27 202 0.0 1.6 0.00 0.00 0.00 88 1016.7
20260904002429 28 182 0.0 1.6 0.00 0.00 0.00 87 1016.6
20260904001927 28 184 0.0 0.0 0.00 0.00 0.00 87 1016.3
20260904001423 28 159 0.0 1.6 0.00 0.00 0.00 86 1016.2
20260904000918 28 172 0.0 1.6 0.00 0.00 0.00 86 1016.4
20260904000418 28 198 0.0 1.6 0.00 0.00 0.00 86 1016.3
20260903235913 28 203 1.6 1.6 0.00 0.00 0.00 86 1016.1
20260903235409 28 165 0.0 0.0 0.00 0.00 0.00 86 1015.9
20260903234908 28 157 0.0 1.6 0.00 0.00 0.00 85 1016.0
20260903234404 28 172 0.0 1.6 0.00 0.00 0.00 85 1015.6
20260903233900 29 169 0.0 1.6 0.00 0.00 0.00 84 1015.5
20260903233356 29 215 0.0 3.2 0.00 0.00 0.00 83 1015.9
20260903232855 29 219 1.6 3.2 0.00 0.00 0.00 83 1015.8
20260903232351 30 188 0.0 1.6 0.00 0.00 0.00 81 1015.9
20260903231850 30 172 0.0 1.6 0.00 0.00 0.00 80 1015.9
20260903231345 30 247 0.0 1.6 0.00 0.00 0.00 78 1015.9
20260903230841 30 227 1.6 3.2 0.00 0.00 0.00 76 1015.7
20260903230336 30 229 1.6 3.2 0.00 0.00 0.00 77 1015.5
20260903225832 30 259 1.6 1.6 0.00 0.00 0.00 78 1015.3
20260903225328 30 223 1.6 1.6 0.00 0.00 0.00 78 1015.6
20260903224824 30 225 0.0 1.6 0.00 0.00 0.00 77 1015.5
20260903224320 31 187 0.0 1.6 0.00 0.00 0.00 77 1015.6
20260903223816 30 225 0.0 0.0 0.00 0.00 0.00 75 1015.4
20260903223314 31 260 0.0 0.0 0.00 0.00 0.00 74 1015.3
20260903222809 31 187 0.0 1.6 0.00 0.00 0.00 75 1015.5
20260903222308 31 190 0.0 1.6 0.00 0.00 0.00 74 1015.5
20260903221803 31 247 0.0 1.6 0.00 0.00 0.00 69 1015.3
20260903221302 31 265 0.0 1.6 0.00 0.00 0.00 70 1015.5
20260903220801 32 230 0.0 1.6 0.00 0.00 0.00 69 1015.4
20260903220255 32 222 0.0 0.0 0.00 0.00 0.00 66 1015.7
20260903215753 32 172 0.0 0.0 0.00 0.00 0.00 64 1015.8
20260903215250 32 247 0.0 0.0 0.00 0.00 0.00 62 1015.8
20260903214748 32 260 0.0 0.0 0.00 0.00 0.00 62 1015.8
20260903214244 33 172 0.0 0.0 0.00 0.00 0.00 60 1015.8
20260903213738 33 184 0.0 0.0 0.00 0.00 0.00 60 1015.8
20260903213234 33 171 0.0 4.8 0.00 0.00 0.00 57 1015.6
20260903212730 33 246 0.0 1.6 0.00 0.00 0.00 57 1015.5
20260903212227 33 231 0.0 0.0 0.00 0.00 0.00 57 1015.3
20260903211725 34 260 0.0 0.0 0.00 0.00 0.00 56 1015.6
20260903211222 34 184 0.0 1.6 0.00 0.00 0.00 53 1015.7
20260903210718 35 317 0.0 1.6 0.00 0.00 0.00 53 1015.7
20260903210213 35 306 0.0 1.6 0.00 0.00 0.00 52 1016.0
20260903205713 35 290 1.6 4.8 0.00 0.00 0.00 51 1016.1
20260903205212 35 241 0.0 3.2 0.00 0.00 0.00 54 1015.9
20260903204707 35 185 0.0 3.2 0.00 0.00 0.00 55 1016.0
20260903204204 35 301 8.0 8.0 0.00 0.00 0.00 52 1016.1
20260903203659 35 137 0.0 3.2 0.00 0.00 0.00 55 1015.7
20260903203154 35 245 4.8 6.4 0.00 0.00 0.00 53 1016.0
20260903202648 35 339 1.6 4.8 0.00 0.00 0.00 54 1016.2
20260903202144 35 137 1.6 4.8 0.00 0.00 0.00 55 1016.0
20260903201638 35 247 4.8 6.4 0.00 0.00 0.00 52 1016.3
20260903201137 35 299 0.0 4.8 0.00 0.00 0.00 56 1016.3
20260903200633 35 177 1.6 3.2 0.00 0.00 0.00 54 1016.3
20260903200128 35 276 1.6 3.2 0.00 0.00 0.00 54 1016.4
20260903195624 35 354 0.0 6.4 0.00 0.00 0.00 55 1016.5
20260903195119 35 154 0.0 0.0 0.00 0.00 0.00 54 1016.4
20260903194615 35 132 0.0 0.0 0.00 0.00 0.00 52 1016.3
20260903194114 35 338 0.0 1.6 0.00 0.00 0.00 52 1016.8
20260903193610 36 249 1.6 6.4 0.00 0.00 0.00 49 1016.7
20260903193106 36 252 3.2 6.4 0.00 0.00 0.00 48 1016.8
20260903192602 36 262 0.0 3.2 0.00 0.00 0.00 51 1016.9
20260903192057 36 301 1.6 3.2 0.00 0.00 0.00 49 1016.9
20260903191553 36 220 0.0 4.8 0.00 0.00 0.00 48 1016.8
20260903191048 36 230 1.6 3.2 0.00 0.00 0.00 48 1016.9
20260903190547 36 161 0.0 3.2 0.00 0.00 0.00 49 1017.0
20260903190047 35 260 4.8 4.8 0.00 0.00 0.00 53 1017.1
20260903185543 35 254 4.8 4.8 0.00 0.00 0.00 52 1017.2
20260903185038 36 286 3.2 8.0 0.00 0.00 0.00 52 1017.3
20260903184534 36 287 3.2 3.2 0.00 0.00 0.00 52 1017.3
20260903184029 36 235 0.0 6.4 0.00 0.00 0.00 52 1017.2
20260903183528 35 137 0.0 3.2 0.00 0.00 0.00 51 1017.6
20260903183024 35 222 3.2 8.0 0.00 0.00 0.00 53 1017.6
20260903182522 35 254 3.2 6.4 0.00 0.00 0.00 55 1017.6
20260903182019 35 258 6.4 9.7 0.00 0.00 0.00 53 1017.7
20260903181512 35 261 4.8 4.8 0.00 0.00 0.00 56 1017.8
20260903181011 35 278 4.8 8.0 0.00 0.00 0.00 54 1017.7
20260903180507 35 210 1.6 6.4 0.00 0.00 0.00 55 1017.8
20260903180006 35 249 4.8 4.8 0.00 0.00 0.00 55 1017.9
20260903175505 34 345 0.0 0.0 0.00 0.00 0.00 58 1018.2
20260903175004 33 277 1.6 6.4 0.00 0.00 0.00 58 1018.1
20260903174459 34 237 1.6 4.8 0.00 0.00 0.00 56 1018.2
20260903173954 33 286 0.0 6.4 0.00 0.00 0.00 58 1018.2
20260903173449 34 153 0.0 6.4 0.00 0.00 0.00 57 1018.1
20260903172945 33 235 4.8 6.4 0.00 0.00 0.00 58 1018.3
20260903172440 33 170 0.0 4.8 0.00 0.00 0.00 59 1018.3
20260903171935 33 144 4.8 6.4 0.00 0.00 0.00 60 1018.2
20260903171431 33 247 4.8 6.4 0.00 0.00 0.00 61 1018.4
20260903170931 33 217 3.2 4.8 0.00 0.00 0.00 61 1018.3
20260903170425 32 167 3.2 4.8 0.00 0.00 0.00 61 1018.3
20260903165924 32 148 3.2 4.8 0.00 0.00 0.00 62 1018.2
20260903165419 32 248 8.0 9.7 0.00 0.00 0.00 62 1018.6
20260903164919 32 279 3.2 4.8 0.00 0.00 0.00 63 1018.5
20260903164414 32 242 8.0 8.0 0.00 0.00 0.00 62 1018.8
20260903163914 32 253 6.4 8.0 0.00 0.00 0.00 64 1018.6
20260903163410 32 263 1.6 3.2 0.00 0.00 0.00 65 1018.6
20260903162906 32 236 4.8 4.8 0.00 0.00 0.00 66 1018.6
20260903162402 32 336 0.0 1.6 0.00 0.00 0.00 68 1018.8
20260903161857 31 224 1.6 3.2 0.00 0.00 0.00 68 1018.8
20260903161352 31 310 3.2 8.0 0.00 0.00 0.00 68 1018.9
20260903160849 31 212 4.8 8.0 0.00 0.00 0.00 67 1019.0
20260903160347 31 273 1.6 3.2 0.00 0.00 0.00 69 1018.8
20260903155846 31 48 1.6 9.7 0.00 0.00 0.00 69 1018.9
20260903155341 31 229 3.2 3.2 0.00 0.00 0.00 70 1018.9
20260903154836 31 146 4.8 6.4 0.00 0.00 0.00 71 1019.1
20260903154333 31 156 3.2 6.4 0.00 0.00 0.00 67 1019.1
20260903153827 31 271 3.2 3.2 0.00 0.00 0.00 67 1018.8
20260903153323 31 239 3.2 9.7 0.00 0.00 0.00 68 1019.0
20260903152820 31 284 1.6 8.0 0.00 0.00 0.00 69 1019.1
20260903152315 31 3 0.0 3.2 0.00 0.00 0.00 69 1019.0